TimeEDT,TemperatureF,Dew PointF,Humidity,Sea Level PressureIn,VisibilityMPH,Wind Direction,Wind SpeedMPH,Gust SpeedMPH,PrecipitationIn,Events,Conditions,WindDirDegrees,DateUTC
12:53 AM,70.0,52.0,53,29.86,10.0,SW,10.4,-,N/A,,Clear,230,2013-04-10 04:53:00
1:53 AM,68.0,52.0,56,29.84,10.0,WSW,9.2,-,N/A,,Clear,240,2013-04-10 05:53:00
2:53 AM,68.0,52.0,56,29.83,10.0,West,3.5,-,N/A,,Clear,270,2013-04-10 06:53:00
3:53 AM,66.9,52.0,59,29.83,10.0,West,4.6,-,N/A,,Clear,260,2013-04-10 07:53:00
4:53 AM,66.0,52.0,60,29.84,10.0,WNW,3.5,-,N/A,,Clear,290,2013-04-10 08:53:00
5:53 AM,64.9,51.1,61,29.86,10.0,Calm,Calm,-,N/A,,Clear,0,2013-04-10 09:53:00
6:53 AM,63.0,51.1,65,29.89,10.0,Calm,Calm,-,N/A,,Clear,0,2013-04-10 10:53:00
7:53 AM,66.0,52.0,60,29.90,10.0,Calm,Calm,-,N/A,,Overcast,0,2013-04-10 11:53:00
8:53 AM,64.9,51.1,61,29.92,10.0,NE,5.8,-,N/A,,Overcast,40,2013-04-10 12:53:00
9:53 AM,70.0,52.0,53,29.90,10.0,Calm,Calm,-,N/A,,Partly Cloudy,0,2013-04-10 13:53:00
10:53 AM,73.0,53.1,49,29.90,10.0,SSW,3.5,-,N/A,,Clear,210,2013-04-10 14:53:00
11:53 AM,78.1,54.0,43,29.88,10.0,Variable,4.6,-,N/A,,Clear,0,2013-04-10 15:53:00
1:53 PM,84.9,55.0,36,29.84,10.0,WSW,8.1,-,N/A,,Scattered Clouds,240,2013-04-10 17:53:00
3:53 PM,82.0,54.0,38,29.80,10.0,ESE,16.1,20.7,N/A,,Overcast,110,2013-04-10 19:53:00
4:12 PM,75.2,51.8,44,29.82,10.0,ESE,15.0,-,N/A,,Overcast,110,2013-04-10 20:12:00
4:53 PM,73.0,51.1,46,29.81,10.0,SE,15.0,-,N/A,,Partly Cloudy,140,2013-04-10 20:53:00
5:53 PM,69.1,51.1,53,29.80,10.0,SSE,13.8,-,N/A,,Scattered Clouds,150,2013-04-10 21:53:00
6:53 PM,64.9,48.9,56,29.79,10.0,SE,6.9,-,N/A,,Mostly Cloudy,130,2013-04-10 22:53:00
7:53 PM,61.0,54.0,78,29.80,7.0,East,11.5,-,0.06,Rain,Light Rain,100,2013-04-10 23:53:00
8:00 PM,60.8,53.6,77,29.81,10.0,ESE,11.5,-,0.00,Rain,Light Rain,110,2013-04-11 00:00:00
8:33 PM,60.8,55.4,82,29.86,1.8,Variable,3.5,-,0.18,Rain,Heavy Rain,0,2013-04-11 00:33:00
8:47 PM,59.0,55.4,88,29.83,3.0,South,13.8,-,0.30,Rain-Thunderstorm,Light Thunderstorms and Rain,180,2013-04-11 00:47:00
8:53 PM,59.0,55.9,90,29.81,6.0,South,12.7,-,0.30,Rain-Thunderstorm,Light Thunderstorms and Rain,180,2013-04-11 00:53:00
9:13 PM,59.0,55.4,88,29.82,8.0,Calm,Calm,-,0.00,Thunderstorm,Mostly Cloudy,0,2013-04-11 01:13:00
9:34 PM,59.0,55.4,88,29.80,8.0,ENE,4.6,-,0.00,,Partly Cloudy,70,2013-04-11 01:34:00
9:43 PM,59.0,55.4,88,29.79,8.0,SE,5.8,-,0.00,Rain-Thunderstorm,Light Rain,130,2013-04-11 01:43:00
9:53 PM,59.0,55.9,90,29.77,8.0,Calm,Calm,-,0.00,,Partly Cloudy,0,2013-04-11 01:53:00
10:18 PM,62.6,57.2,82,29.91,3.0,North,19.6,26.5,0.07,Rain-Thunderstorm,Heavy Rain,350,2013-04-11 02:18:00
10:26 PM,62.6,57.2,82,29.92,2.0,NNW,5.8,26.5,0.14,Rain-Thunderstorm,Heavy Rain,330,2013-04-11 02:26:00
10:33 PM,62.6,59.0,88,29.92,2.0,WNW,4.6,-,0.19,Rain,Heavy Rain,290,2013-04-11 02:33:00
10:43 PM,62.6,59.0,88,29.92,5.0,NW,4.6,-,0.20,Rain,Light Rain,310,2013-04-11 02:43:00
10:53 PM,62.1,59.0,90,29.90,6.0,NNW,3.5,-,0.20,Rain,Light Rain,330,2013-04-11 02:53:00
11:53 PM,61.0,60.1,97,29.83,6.0,SSE,4.6,-,0.07,Rain,Light Rain,150,2013-04-11 03:53:00